{"data":{"norad_id":46505,"intl_designator":"2020-068V","name":"NETSAT-3","alt_names":[],"object_type":"PAYLOAD","status":"ACTIVE","operator":null,"country":"GER","launch_date":"2020-09-28","launch_site_code":"PLMSC","launch_vehicle":null,"mission":null,"orbit_class":"UNKNOWN","rcs_meters":null,"size_class":null,"mass_kg":null,"dimensions":null,"purposes":["tech_demo"],"wikipedia_slug":null,"has_3d_model":false,"image_url":null,"decayed_at":null,"tle_current":{"epoch":"2026-05-24T23:14:02.188032Z","epoch_age_seconds":73878,"freshness":"FRESH","line1":"1 46505U 20068V   26144.96808088  .00017066  00000+0  40505-3 0  9996","line2":"2 46505  97.8663 149.6052 0007134  71.8687 288.3335 15.41763053312104","mean_motion":15.41763053,"eccentricity":0.0007134,"inclination_deg":97.8663,"raan_deg":149.6052,"arg_perigee_deg":71.8687,"mean_anomaly_deg":288.3335,"bstar":0.00040505,"rev_number":31210,"period_min":93.399565983762,"perigee_km":436.0411317997,"apogee_km":445.77054211948,"semimajor_km":6819.0428369596,"source":"CELESTRAK","updated_at":"2026-05-25T13:38:25.531266Z"}}}